Location: *
(2.5500°S, 65.9667°W)
Time: 11:15:10
(UTC+00:00)

Cosmos 1437 Rocket - Pass Details

Date: 26 October 2021
Orbit: 501 x 564 km, 81.2° (Epoch: 28 November)

Event Time Altitude Azimuth Distance (km) Brightness Sun altitude
Rises 23:05:01 0° 164° (SSE) 2,745 6.4 -13.4°
Reaches altitude 10° 23:07:33 10° 150° (SSE) 1,838 5.3 -14.0°
Enters shadow 23:10:44 23° 98° (E) 1,181 4.0 -14.7°
